La Flèche Normande - 20/09/2009

85 Km


Pl Do. Nom - Surname Prénom - Name S-Cat TEMPS - Time /sx /cat Vit.
1 559 DESGUE Julien MC 02:30:47 1 1 33,82
2 639 TESTIER Jérôme MD 02:32:25 2 1 33,46
3 505 MOINAUX Laurent FSE 02:34:17 3 1 33,05
4 565 MESSIER Robert MI 02:39:57 4 1 31,88
5 504 BOMBARDE Thierry FSE 02:40:54 5 2 31,69
6 535 ROUSSEL Didier FSE 02:40:55 6 3 31,69
7 562 PONSEEL Pierre FSE 02:40:56 7 4 31,69
8 507 TERRIER Olivier FSE 02:43:31 8 5 31,19
9 506 PONTIN Yves MG 02:45:12 9 1 30,87
10 518 De SALINS Xavier FSE 02:45:12 10 6 30,87
11 521 DOURTHE Manuel FSE 02:45:15 11 7 30,86
12 540 MOTTE Jean Baptiste MC 02:47:49 12 2 30,39
13 529 HUON Daniel MI 02:47:49 13 2 30,39
14 545 ROMAGNE Michel MSE 02:49:08 14 1 30,15
15 534 HOUE Jean Marc FSE 02:49:10 15 8 30,15
16 515 BOISROUX Philippe FSE 02:49:12 16 9 30,14
17 539 THOUROUDE Mickaël MD 02:49:13 17 2 30,14
18 525 LAIGNEL Patrick FSE 02:49:14 18 10 30,14
19 557 MOREL Jean Yves MSE 02:49:15 19 2 30,13
20 536 BERGE Pascal ME 02:49:16 20 1 30,13
21 517 WAKEFORD Philippe MG 02:49:17 21 2 30,13
22 531 MIDOL Eric FSE 02:49:19 22 11 30,12
23 524 LAIGNEL Pierre Alain MC 02:49:41 23 3 30,05
24 567 GASSE Dominique MG 02:51:32 24 3 29,73
25 526 LIHARD Christophe ME 02:51:33 25 2 29,73
26 522 MARCHAND Daniel MSE 02:53:17 26 3 29,43
27 538 JAMES Didier FSE 02:53:18 27 12 29,43
28 523 LAIGNEL Maxime MC 02:53:27 28 4 29,40
29 541 MOTTE Olivier FSE 02:53:28 29 13 29,40
30 555 LEBESCOUD Christian MSE 02:53:32 30 4 29,39
31 543 SARHAN Véronique FB 02:53:33 1 1 29,39
32 544 DEVILLERS Arnaud MD 02:53:33 31 3 29,38
33 530 MINAROLI Stéphane MD 02:56:55 32 4 28,83
34 532 MUTEAU Jean Claude MI 02:57:02 33 3 28,81
35 516 LETELLIER Jean Paul MI 02:57:03 34 4 28,81
36 556 PAGNY Jérome ME 02:57:18 35 3 28,76
37 601 MALEYSSON Charles MSE 02:57:44 36 5 28,69
38 542 PLESSIS Philippe ME 03:00:14 37 4 28,29
39 513 LEGEAY Denis MD 03:08:30 38 5 27,05
40 546 AMPOULIE Philippe MI 03:09:32 39 5 26,91
41 558 VARANGLE Michel ME 03:09:33 40 5 26,91
42 528 LEBRUN Daniel MI 03:10:14 41 6 26,81
43 519 GODART Chris MI 03:12:14 42 7 26,53
44 533 HEBERT Frédéric ME 03:15:09 43 6 26,13
45 132 GRANIER Julien MD 03:19:35 44 6 25,55
46 561 JAMES Maxime ME 03:22:45 45 7 25,15
47 19 LENORMAND Christophe ME 03:23:06 46 8 25,11
48 512 OEUILLOT Alain FSE 03:23:06 47 14 25,11
49 21 DELANDE Marcel MSE 03:23:06 48 6 25,11
50 509 GUEDON Jean Baptiste FSE 03:23:06 49 15 25,11
51 511 DENNEVAL Jean Marc FSE 03:23:08 50 16 25,10
52 16 AUDOUX Yves MI 03:23:25 51 8 25,07
53 510 AUDOUX Jacqueline FB 03:23:25 2 2 25,07
54 549 GUIBON Joël MSE 03:23:33 52 7 25,05
55 551 ROUSSEAU Danielle FB 03:23:42 3 3 25,04
56 553 BRAULT Thomas ME 03:34:43 53 9 23,75
57 554 BOENDERS Daniel MI 03:39:20 54 9 23,25
58 602 DUBOURG Xavier MHANDI 04:26:06 55 1 19,17
59 527 HERNANDEZ Mylène FB 04:32:35 4 4 18,71
60 560 DELANGE Marie Christine FB 05:00:24 5 5 16,98
61 605 LEBLANC Daniel MHANDI 05:00:53 56 2 16,95
62 604 MASSIER René MHANDI 05:18:31 57 3 16,01
63 603 CAZAUBON Sylvain MHANDI 05:20:24 58 4 15,92
64 606 PILLAU Claude MHANDI 05:54:21 59 5 14,39